Tracking 18987 objects as of 25-Feb-2018
HD Live streaming from Space Station
objects crossing your sky now

SL-23 DEB

Track SL-23 DEB now!


NORAD ID: 35577
Int'l Code: 2009-009C
Perigee: 1,475.0 km
Apogee: 35,703.4 km
Inclination: 35.2 °
Period: 654.1 minutes
Semi major axis: 24960 km
RCS: 0.1999 m2 (medium)
Launch date: February 26, 2009
Source: Commonwealth of Independent States (former USSR) (CIS)
Launch site: TYURATAM MISSILE AND SPACE COMPLEX (TTMTR)

Note: This is SATELLITE DEBRIS
aabbcc
Your satellite tracking list
Your tracking list is empty




NASA's NSSDC Master Catalog

Two Line Element Set (TLE):
1 35577U 09009C   18046.12651375 -.00000059  00000-0  00000+0 0  9998
2 35577  35.2071 330.2972 6856609 115.2034   2.0186  2.20156179 70725
Source of the keplerian elements: AFSPC